Danville, IN

7:47 PM EDT on May 27, 2017 (GMT -0400)
Vermilion County

Weather History for KDNV - November, 2011

Change the Weather History Date:

Wednesday, November 16, 2011

  Actual Average (KLAF) Record (KLAF)
Temperature  
Mean Temperature 44 °F -  
Max Temperature 53 °F 49 °F 73 °F (1971)
Min Temperature 35 °F 33 °F 17 °F (1976)
Degree Days  
Heating Degree Days 21    
Moisture  
Dew Point 29 °F    
Average Humidity 63    
Maximum Humidity 94    
Minimum Humidity 39    
Precipitation  
Precipitation 0.00 in - - ()
Sea Level Pressure  
Sea Level Pressure 29.99 in    
Wind  
Wind Speed 14 mph (NNW)    
Max Wind Speed 20 mph    
Max Gust Speed 28 mph    
Visibility 10 miles    
Events Rain    
Averages and records for this station are not official NWS values.
T = Trace of Precipitation, MM = Missing Value Source: NWS Daily Summary

Daily Weather History Graph

Daily Weather History Graph

Search for Another Location

Airport or City:

Trip Planner

Search our weather history database for the weather conditions in past years. The results will help you decide how hot, cold, wet, or windy it might be!

Date:

Astronomy

Nov. 16, 2011 Rise Set
Actual Time 6:36 AM CST 4:32 PM CST
Civil Twilight 6:07 AM CST 5:02 PM CST
Nautical Twilight 5:34 AM CST 5:35 PM CST
Astronomical Twilight 5:02 AM CST 6:07 PM CST
Moon 9:46 PM CST (11/16) 11:12 AM CST (11/16)
Length of Visible Light 10h 54m
Length of Day
9h 56m
Waning Gibbous, 70% of the Moon is Illuminated
Nov 16
Waning Gibbous
Nov 18
Last Quarter
Nov 25
New
Dec 2
First Quarter
Dec 10
Full

Hourly Weather History & Observations

Time (CST) Temp. Windchill Dew Point Humidity Pressure Visibility Wind Dir Wind Speed Gust Speed Precip Events Conditions
12:15 AM 53.6 °F - 51.8 °F 94% 29.83 in 4.0 mi WNW 10.4 mph - N/A Rain Heavy Rain
12:35 AM 51.8 °F - 50.0 °F 94% 29.84 in 4.0 mi WNW 10.4 mph - N/A Rain Heavy Rain
12:55 AM 50.0 °F - 42.8 °F 76% 29.85 in 7.0 mi NW 13.8 mph - N/A Rain Rain
1:15 AM 50.0 °F - 41.0 °F 71% 29.85 in 7.0 mi NW 15.0 mph 18.4 mph N/A Rain Rain
1:35 AM 46.4 °F 40.1 °F 37.4 °F 71% 29.86 in 10.0 mi NNW 15.0 mph 19.6 mph N/A Rain Rain
1:55 AM 44.6 °F 38.1 °F 35.6 °F 71% 29.87 in 10.0 mi NNW 13.8 mph 18.4 mph N/A Rain Rain
2:15 AM 44.6 °F 37.2 °F 33.8 °F 66% 29.87 in 10.0 mi NNW 17.3 mph 21.9 mph N/A Rain Light Rain
2:35 AM 44.6 °F 37.2 °F 33.8 °F 66% 29.87 in 10.0 mi NNW 17.3 mph 23.0 mph N/A Rain Rain
2:55 AM 42.8 °F 35.4 °F 33.8 °F 70% 29.88 in 10.0 mi NNW 15.0 mph - N/A Rain Rain
3:15 AM 42.8 °F 36.6 °F 33.8 °F 70% 29.89 in 10.0 mi NNW 11.5 mph 18.4 mph N/A Rain Rain
3:35 AM 42.8 °F 35.8 °F 32.0 °F 66% 29.90 in 10.0 mi NNW 13.8 mph 19.6 mph N/A   Clear
3:55 AM 41.0 °F 33.5 °F 32.0 °F 70% 29.90 in 10.0 mi NNW 13.8 mph - N/A   Clear
4:15 AM 41.0 °F 33.5 °F 32.0 °F 70% 29.90 in 10.0 mi NNW 13.8 mph 18.4 mph N/A   Clear
4:35 AM 41.0 °F 32.8 °F 32.0 °F 70% 29.91 in 10.0 mi NNW 16.1 mph - N/A   Clear
4:55 AM 39.2 °F 31.2 °F 32.0 °F 75% 29.91 in 10.0 mi NNW 13.8 mph - N/A   Clear
5:15 AM 39.2 °F 32.5 °F 32.0 °F 75% 29.91 in 10.0 mi North 10.4 mph - N/A   Clear
5:35 AM 37.4 °F 30.3 °F 32.0 °F 81% 29.91 in 10.0 mi NNW 10.4 mph - N/A   Clear
5:55 AM 37.4 °F 29.3 °F 30.2 °F 75% 29.92 in 10.0 mi NNW 12.7 mph - N/A   Clear
6:15 AM 37.4 °F 27.8 °F 32.0 °F 81% 29.93 in 10.0 mi NNW 17.3 mph - N/A   Clear
6:35 AM 37.4 °F 28.5 °F 30.2 °F 75% 29.95 in 10.0 mi NNW 15.0 mph 20.7 mph N/A   Clear
6:55 AM 37.4 °F 27.8 °F 30.2 °F 75% 29.97 in 10.0 mi NW 17.3 mph - N/A   Clear
7:15 AM 37.4 °F 28.5 °F 28.4 °F 70% 29.98 in 10.0 mi NW 15.0 mph 23.0 mph N/A   Clear
7:35 AM 37.4 °F 27.8 °F 28.4 °F 70% 30.00 in 10.0 mi NNW 17.3 mph - N/A   Clear
7:55 AM 37.4 °F 27.5 °F 28.4 °F 70% 30.00 in 10.0 mi NNW 18.4 mph 24.2 mph N/A   Clear
8:15 AM 35.6 °F 26.2 °F 28.4 °F 75% 30.02 in 10.0 mi NNW 15.0 mph 25.3 mph N/A   Clear
8:35 AM 35.6 °F 26.2 °F 28.4 °F 75% 30.03 in 10.0 mi NNW 15.0 mph - N/A   Clear
8:55 AM 35.6 °F 27.1 °F 28.4 °F 75% 30.03 in 10.0 mi NNW 12.7 mph - N/A   Clear
9:15 AM 37.4 °F 28.9 °F 28.4 °F 70% 30.03 in 10.0 mi NNW 13.8 mph 18.4 mph N/A   Clear
9:35 AM 37.4 °F 28.5 °F 26.6 °F 65% 30.03 in 10.0 mi NNW 15.0 mph - N/A   Clear
9:55 AM 41.0 °F 34.3 °F 26.6 °F 57% 30.04 in 10.0 mi NW 11.5 mph - N/A   Clear
10:15 AM 42.8 °F 35.8 °F 28.4 °F 57% 30.04 in 7.0 mi NW 13.8 mph 18.4 mph N/A   Clear
10:35 AM 41.0 °F 32.8 °F 26.6 °F 57% 30.04 in 10.0 mi NNW 16.1 mph 24.2 mph N/A   Clear
10:55 AM 39.2 °F 29.6 °F 26.6 °F 61% 30.03 in 10.0 mi NW 19.6 mph - N/A   Clear
11:15 AM 39.2 °F 32.0 °F 28.4 °F 65% 30.03 in 7.0 mi NW 11.5 mph 21.9 mph N/A   Clear
11:35 AM 41.0 °F 32.8 °F 26.6 °F 57% 30.03 in 10.0 mi NNW 16.1 mph 20.7 mph N/A   Clear
11:55 AM 41.0 °F 33.5 °F 26.6 °F 57% 30.03 in 10.0 mi NNW 13.8 mph 18.4 mph N/A   Clear
12:15 PM 42.8 °F 35.4 °F 26.6 °F 53% 30.03 in 10.0 mi NNW 15.0 mph 19.6 mph N/A   Clear
12:35 PM 42.8 °F 35.1 °F 24.8 °F 49% 30.03 in 10.0 mi NNW 16.1 mph 21.9 mph N/A   Clear
12:55 PM 42.8 °F 35.1 °F 23.0 °F 46% 30.03 in 10.0 mi NNW 16.1 mph 23.0 mph N/A   Clear
1:15 PM 42.8 °F 35.1 °F 24.8 °F 49% 30.04 in 10.0 mi NW 16.1 mph 21.9 mph N/A   Clear
1:35 PM 42.8 °F 34.5 °F 23.0 °F 46% 30.04 in 10.0 mi NNW 18.4 mph 23.0 mph N/A   Clear
1:55 PM 42.8 °F 35.8 °F 23.0 °F 46% 30.05 in 7.0 mi NW 13.8 mph 23.0 mph N/A   Clear
2:15 PM 42.8 °F 35.1 °F 19.4 °F 39% 30.05 in 10.0 mi NNW 16.1 mph 25.3 mph N/A   Clear
2:35 PM 42.8 °F 34.3 °F 19.4 °F 39% 30.06 in 10.0 mi NNW 19.6 mph 27.6 mph N/A   Clear
2:55 PM 41.0 °F 33.9 °F 23.0 °F 49% 30.07 in 10.0 mi NNW 12.7 mph 23.0 mph N/A   Clear
3:15 PM 41.0 °F 33.1 °F 21.2 °F 45% 30.08 in 10.0 mi NNW 15.0 mph 18.4 mph N/A   Clear
3:35 PM 41.0 °F 33.9 °F 23.0 °F 49% 30.09 in 10.0 mi NNW 12.7 mph 18.4 mph N/A   Scattered Clouds
3:55 PM 41.0 °F 35.2 °F 21.2 °F 45% 30.10 in 10.0 mi NNW 9.2 mph 19.6 mph N/A   Scattered Clouds
4:15 PM 39.2 °F 32.5 °F 23.0 °F 52% 30.10 in 10.0 mi NNW 10.4 mph - N/A   Clear
4:35 PM 37.4 °F 30.8 °F 23.0 °F 56% 30.11 in 10.0 mi NNW 9.2 mph - N/A   Scattered Clouds
4:55 PM 37.4 °F 31.4 °F 23.0 °F 56% 30.11 in 10.0 mi NNW 8.1 mph - N/A   Scattered Clouds
5:15 PM 37.4 °F 30.3 °F 23.0 °F 56% 30.13 in 10.0 mi NNW 10.4 mph - N/A   Scattered Clouds
5:35 PM 37.4 °F 30.8 °F 23.0 °F 56% 30.13 in 10.0 mi NNW 9.2 mph - N/A   Scattered Clouds
5:55 PM 37.4 °F 31.4 °F 23.0 °F 56% 30.14 in 10.0 mi NNW 8.1 mph - N/A   Scattered Clouds
6:15 PM 37.4 °F 30.3 °F 23.0 °F 56% 30.15 in 10.0 mi NNW 10.4 mph - N/A   Clear
6:35 PM 37.4 °F 31.4 °F 23.0 °F 56% 30.15 in 10.0 mi NNW 8.1 mph - N/A   Scattered Clouds
6:55 PM 37.4 °F 30.8 °F 23.0 °F 56% 30.14 in 10.0 mi NW 9.2 mph - N/A   Clear
7:15 PM 35.6 °F 29.9 °F 23.0 °F 60% 30.14 in 10.0 mi NW 6.9 mph - N/A   Clear
7:35 PM 35.6 °F 30.7 °F 24.8 °F 65% 30.14 in 10.0 mi NW 5.8 mph - N/A   Clear
7:55 PM 33.8 °F 28.6 °F 26.6 °F 75% 30.14 in 10.0 mi NW 5.8 mph - N/A   Clear
8:15 PM 35.6 °F 29.9 °F 23.0 °F 60% 30.15 in 10.0 mi NW 6.9 mph - N/A   Clear
8:35 PM 35.6 °F 30.7 °F 24.8 °F 65% 30.15 in 10.0 mi NW 5.8 mph - N/A   Clear
8:55 PM 35.6 °F 29.2 °F 23.0 °F 60% 30.15 in 10.0 mi NW 8.1 mph - N/A   Clear
9:15 PM 35.6 °F 29.9 °F 23.0 °F 60% 30.15 in 10.0 mi NW 6.9 mph - N/A   Clear
9:35 PM 35.6 °F 29.9 °F 23.0 °F 60% 30.15 in 10.0 mi NW 6.9 mph - N/A   Clear
9:55 PM 35.6 °F 29.2 °F 23.0 °F 60% 30.15 in 10.0 mi NW 8.1 mph - N/A   Clear
10:15 PM 33.8 °F 27.0 °F 23.0 °F 65% 30.15 in 10.0 mi NW 8.1 mph - N/A   Clear
10:35 PM 33.8 °F 26.4 °F 23.0 °F 65% 30.15 in 10.0 mi NW 9.2 mph - N/A   Clear
10:55 PM 33.8 °F 27.0 °F 23.0 °F 65% 30.15 in 10.0 mi WNW 8.1 mph - N/A   Clear
11:15 PM 33.8 °F 27.0 °F 21.2 °F 60% 30.15 in 10.0 mi WNW 8.1 mph - N/A   Clear
11:35 PM 33.8 °F 28.6 °F 23.0 °F 65% 30.16 in 10.0 mi WNW 5.8 mph - N/A   Clear
11:55 PM 32.0 °F 26.4 °F 21.2 °F 64% 30.16 in 10.0 mi WNW 5.8 mph - N/A   Scattered Clouds